ASI232 EYPA-EETN

Flight info

Callsign ASI232
Flight time 0h 57m
Altitude 35000
Route XARIN DCT ASKOR DCT KEMET
Aircraft A306/H-SDE3FGHIRWY/LB1

Departure

Time 2026-04-14 14:02
Airport Palanga International Airport (EYPA)

Arrival

Time 2026-04-14 14:59
Airport Lennart Meri Tallinn Airport (EETN)
Time Latitude Longitude Altitude Speed Heading
2026-04-14 13:49 55.96971 21.09615 41 ft 0 kts 285°
2026-04-14 13:53 55.97016 21.09551 44 ft 13 kts 350°
2026-04-14 13:53 55.97078 21.09518 44 ft 7 kts 312°
2026-04-14 13:53 55.97097 21.09442 44 ft 6 kts 287°
2026-04-14 13:54 55.97105 21.09370 44 ft 5 kts 274°
2026-04-14 13:54 55.97095 21.09319 44 ft 4 kts 237°
2026-04-14 13:54 55.97080 21.09296 44 ft 2 kts 212°
2026-04-14 13:54 55.97074 21.09292 44 ft 2 kts 203°
2026-04-14 13:55 55.97089 21.09303 44 ft 2 kts 182°
2026-04-14 13:55 55.97105 21.09306 44 ft 2 kts 193°
2026-04-14 13:55 55.97122 21.09312 42 ft 3 kts 193°
2026-04-14 13:55 55.97125 21.09314 42 ft 0 kts 193°
2026-04-14 13:56 55.97130 21.09316 43 ft 1 kts 193°
2026-04-14 13:56 55.97140 21.09320 42 ft 2 kts 193°
2026-04-14 13:56 55.97149 21.09323 41 ft 2 kts 193°
2026-04-14 13:56 55.97165 21.09330 41 ft 2 kts 193°
2026-04-14 13:57 55.97182 21.09337 41 ft 2 kts 193°
2026-04-14 13:57 55.97199 21.09344 41 ft 2 kts 193°
2026-04-14 13:57 55.97215 21.09350 42 ft 2 kts 193°
2026-04-14 13:57 55.97232 21.09357 44 ft 2 kts 193°
2026-04-14 13:58 55.97248 21.09364 44 ft 2 kts 193°
2026-04-14 13:58 55.97265 21.09370 39 ft 2 kts 193°
2026-04-14 13:58 55.97282 21.09377 40 ft 2 kts 193°
2026-04-14 13:58 55.97298 21.09384 40 ft 2 kts 193°
2026-04-14 13:59 55.97315 21.09390 40 ft 2 kts 193°
2026-04-14 13:59 55.97331 21.09397 41 ft 2 kts 193°
2026-04-14 13:59 55.97348 21.09404 41 ft 2 kts 193°
2026-04-14 13:59 55.97365 21.09411 41 ft 2 kts 193°
2026-04-14 14:00 55.97380 21.09417 44 ft 0 kts 193°
2026-04-14 14:00 55.97378 21.09416 44 ft 0 kts 193°
2026-04-14 14:00 55.97307 21.09387 44 ft 43 kts 192°
2026-04-14 14:01 55.96707 21.09135 44 ft 131 kts 193°
2026-04-14 14:01 55.95568 21.08674 286 ft 198 kts 188°
2026-04-14 14:01 55.94283 21.08153 574 ft 176 kts 188°
2026-04-14 14:01 55.93150 21.07715 569 ft 158 kts 187°
2026-04-14 14:02 55.91992 21.07281 683 ft 185 kts 187°
2026-04-14 14:02 55.90620 21.06750 774 ft 219 kts 188°
2026-04-14 14:02 55.89041 21.06153 824 ft 244 kts 185°
2026-04-14 14:02 55.87358 21.05960 838 ft 230 kts 176°
2026-04-14 14:03 55.85859 21.06138 840 ft 203 kts 170°
2026-04-14 14:03 55.84530 21.06519 1189 ft 188 kts 165°
2026-04-14 14:03 55.83290 21.07062 2223 ft 178 kts 161°
2026-04-14 14:03 55.82160 21.07716 3572 ft 164 kts 156°
2026-04-14 14:04 55.81096 21.08481 4715 ft 171 kts 153°
2026-04-14 14:04 55.79959 21.09481 5608 ft 191 kts 149°
2026-04-14 14:04 55.78830 21.10686 6909 ft 188 kts 144°
2026-04-14 14:04 55.77755 21.12047 8070 ft 192 kts 141°
2026-04-14 14:05 55.76722 21.13585 9008 ft 197 kts 137°
2026-04-14 14:05 55.75734 21.15326 9575 ft 202 kts 132°
2026-04-14 14:05 55.74818 21.17257 10134 ft 205 kts 128°
2026-04-14 14:05 55.73997 21.19321 10629 ft 209 kts 123°
2026-04-14 14:06 55.73263 21.21563 11101 ft 213 kts 118°
2026-04-14 14:06 55.72629 21.23969 11586 ft 216 kts 113°
2026-04-14 14:06 55.72115 21.26498 12048 ft 219 kts 108°
2026-04-14 14:06 55.71729 21.29142 12552 ft 223 kts 102°
2026-04-14 14:07 55.71481 21.31894 13080 ft 226 kts 96°
2026-04-14 14:07 55.71380 21.34712 13603 ft 231 kts 91°
2026-04-14 14:07 55.71434 21.37573 14114 ft 237 kts 85°
2026-04-14 14:07 55.71655 21.40492 14558 ft 242 kts 77°
2026-04-14 14:08 55.72049 21.43400 15007 ft 244 kts 71°
2026-04-14 14:08 55.72617 21.46259 15460 ft 247 kts 65°
2026-04-14 14:08 55.73351 21.49010 15954 ft 247 kts 58°
2026-04-14 14:08 55.74243 21.51610 16463 ft 246 kts 51°
2026-04-14 14:09 55.75278 21.54024 16997 ft 246 kts 45°
2026-04-14 14:09 55.76443 21.56226 17525 ft 244 kts 38°
2026-04-14 14:09 55.77723 21.58195 18083 ft 243 kts 32°
2026-04-14 14:09 55.79105 21.59916 18632 ft 242 kts 25°
2026-04-14 14:10 55.80569 21.61383 19103 ft 241 kts 21°
2026-04-14 14:10 55.82071 21.62736 19580 ft 243 kts 20°
2026-04-14 14:10 55.83588 21.64077 20069 ft 244 kts 20°
2026-04-14 14:10 55.85114 21.65428 20570 ft 246 kts 20°
2026-04-14 14:11 55.86649 21.66791 21074 ft 247 kts 20°
2026-04-14 14:11 55.88191 21.68162 21590 ft 249 kts 19°
2026-04-14 14:11 55.89743 21.69544 22118 ft 250 kts 19°
2026-04-14 14:11 55.91310 21.70942 22649 ft 252 kts 19°
2026-04-14 14:12 55.92881 21.72345 23185 ft 254 kts 19°
2026-04-14 14:12 55.94471 21.73767 23744 ft 256 kts 19°
2026-04-14 14:12 55.96067 21.75197 24233 ft 258 kts 19°
2026-04-14 14:12 55.97680 21.76643 24699 ft 260 kts 19°
2026-04-14 14:13 55.99302 21.78098 25207 ft 260 kts 19°
2026-04-14 14:13 56.00873 21.79522 25517 ft 251 kts 19°
2026-04-14 14:13 56.02442 21.80931 25910 ft 252 kts 18°
2026-04-14 14:13 56.04010 21.82339 26398 ft 252 kts 18°
2026-04-14 14:14 56.05579 21.83751 26913 ft 253 kts 18°
2026-04-14 14:14 56.07129 21.85146 27395 ft 253 kts 18°
2026-04-14 14:14 56.08702 21.86563 27891 ft 254 kts 18°
2026-04-14 14:14 56.10293 21.87996 28312 ft 258 kts 18°
2026-04-14 14:15 56.11909 21.89453 28715 ft 262 kts 18°
2026-04-14 14:15 56.13545 21.90932 29104 ft 266 kts 18°
2026-04-14 14:15 56.15213 21.92440 29491 ft 270 kts 18°
2026-04-14 14:15 56.16879 21.94078 29863 ft 277 kts 22°
2026-04-14 14:16 56.18512 21.96030 30232 ft 286 kts 28°
2026-04-14 14:16 56.20069 21.98329 30542 ft 295 kts 34°
2026-04-14 14:16 56.21528 22.00997 30858 ft 304 kts 41°
2026-04-14 14:17 56.24010 22.07369 31516 ft 320 kts 54°
2026-04-14 14:17 56.25041 22.10956 31843 ft 325 kts 56°
2026-04-14 14:17 56.26039 22.14626 32168 ft 329 kts 57°
2026-04-14 14:17 56.27028 22.18365 32494 ft 333 kts 57°
2026-04-14 14:18 56.28018 22.22148 32815 ft 336 kts 58°
2026-04-14 14:18 56.29018 22.25974 33129 ft 339 kts 58°
2026-04-14 14:18 56.30029 22.29827 33441 ft 342 kts 58°
2026-04-14 14:18 56.31051 22.33714 33762 ft 346 kts 57°
2026-04-14 14:19 56.32085 22.37641 34092 ft 349 kts 57°
2026-04-14 14:19 56.33131 22.41606 34364 ft 352 kts 57°
2026-04-14 14:19 56.34185 22.45607 34598 ft 355 kts 58°
2026-04-14 14:19 56.35249 22.49653 34845 ft 359 kts 58°
2026-04-14 14:20 56.36311 22.53691 35025 ft 363 kts 57°
2026-04-14 14:20 56.37606 22.57582 35040 ft 360 kts 46°
2026-04-14 14:20 56.39264 22.60879 35039 ft 351 kts 34°
2026-04-14 14:20 56.41255 22.63419 35055 ft 342 kts 22°
2026-04-14 14:21 56.45540 22.67019 35047 ft 340 kts 18°
2026-04-14 14:21 56.49880 22.70436 35052 ft 340 kts 18°
2026-04-14 14:22 56.54214 22.73865 35051 ft 340 kts 18°
2026-04-14 14:22 56.58548 22.77307 35051 ft 340 kts 18°
2026-04-14 14:23 56.62849 22.80733 35057 ft 340 kts 18°
2026-04-14 14:23 56.67203 22.84210 35057 ft 340 kts 18°
2026-04-14 14:24 56.71495 22.87646 35066 ft 340 kts 18°
2026-04-14 14:24 56.75822 22.91118 35065 ft 339 kts 18°
2026-04-14 14:25 56.80140 22.94593 35065 ft 339 kts 18°
2026-04-14 14:25 56.84458 22.98076 35065 ft 339 kts 18°
2026-04-14 14:26 56.88779 23.01570 35065 ft 339 kts 18°
2026-04-14 14:26 56.93147 23.05105 35084 ft 352 kts 19°
2026-04-14 14:27 56.95422 23.06947 35083 ft 363 kts 19°
2026-04-14 14:27 56.97767 23.08850 35080 ft 373 kts 19°
2026-04-14 14:27 57.02616 23.12805 35086 ft 388 kts 19°
2026-04-14 14:28 57.07547 23.16843 35076 ft 389 kts 19°
2026-04-14 14:28 57.12498 23.20907 35080 ft 389 kts 19°
2026-04-14 14:29 57.17439 23.24972 35082 ft 389 kts 20°
2026-04-14 14:29 57.22382 23.29050 35082 ft 389 kts 20°
2026-04-14 14:30 57.27317 23.33133 35084 ft 389 kts 20°
2026-04-14 14:30 57.32257 23.37232 35087 ft 389 kts 20°
2026-04-14 14:31 57.37196 23.41342 35085 ft 389 kts 20°
2026-04-14 14:31 57.42134 23.45463 35089 ft 390 kts 20°
2026-04-14 14:32 57.47081 23.49604 35090 ft 391 kts 20°
2026-04-14 14:32 57.49562 23.51686 34876 ft 391 kts 20°
2026-04-14 14:32 57.52043 23.53771 34316 ft 392 kts 20°
2026-04-14 14:33 57.54519 23.55855 33668 ft 391 kts 20°
2026-04-14 14:33 57.57021 23.57963 32895 ft 395 kts 20°
2026-04-14 14:33 57.59498 23.60052 32136 ft 397 kts 19°
2026-04-14 14:33 57.62021 23.62185 31399 ft 399 kts 19°
2026-04-14 14:34 57.67086 23.66477 29907 ft 400 kts 20°
2026-04-14 14:34 57.69621 23.68628 29065 ft 400 kts 20°
2026-04-14 14:34 57.72150 23.70777 28238 ft 400 kts 21°
2026-04-14 14:35 57.74680 23.72931 27434 ft 399 kts 22°
2026-04-14 14:35 57.77208 23.75088 26669 ft 399 kts 22°
2026-04-14 14:35 57.79734 23.77245 25914 ft 398 kts 23°
2026-04-14 14:35 57.82248 23.79397 25183 ft 397 kts 24°
2026-04-14 14:36 57.84757 23.81547 24459 ft 396 kts 25°
2026-04-14 14:36 57.87251 23.83688 23718 ft 395 kts 25°
2026-04-14 14:36 57.88946 23.85145 23137 ft 394 kts 25°
2026-04-14 14:36 57.91401 23.87260 22311 ft 393 kts 25°
2026-04-14 14:37 57.93878 23.89397 21514 ft 391 kts 26°
2026-04-14 14:37 57.96348 23.91530 20724 ft 390 kts 26°
2026-04-14 14:37 57.98808 23.93657 19962 ft 388 kts 26°
2026-04-14 14:37 58.01253 23.95775 19212 ft 386 kts 26°
2026-04-14 14:38 58.03691 23.97889 18450 ft 384 kts 26°
2026-04-14 14:38 58.06114 23.99993 17635 ft 382 kts 26°
2026-04-14 14:38 58.08498 24.02066 17197 ft 371 kts 26°
2026-04-14 14:38 58.10794 24.04065 17103 ft 359 kts 26°
2026-04-14 14:39 58.13063 24.06045 17110 ft 359 kts 26°
2026-04-14 14:39 58.15340 24.08035 17109 ft 360 kts 26°
2026-04-14 14:39 58.17613 24.10025 17104 ft 360 kts 26°
2026-04-14 14:39 58.19892 24.12021 17110 ft 360 kts 26°
2026-04-14 14:40 58.22165 24.14015 17047 ft 360 kts 26°
2026-04-14 14:40 58.24439 24.16013 16634 ft 359 kts 26°
2026-04-14 14:40 58.26705 24.18010 15907 ft 359 kts 26°
2026-04-14 14:40 58.28975 24.20010 15145 ft 360 kts 26°
2026-04-14 14:41 58.31243 24.22010 14389 ft 360 kts 26°
2026-04-14 14:41 58.33514 24.24016 13593 ft 359 kts 26°
2026-04-14 14:41 58.35772 24.26013 12791 ft 357 kts 26°
2026-04-14 14:41 58.38018 24.28003 12005 ft 356 kts 26°
2026-04-14 14:42 58.40258 24.29989 11244 ft 353 kts 26°
2026-04-14 14:42 58.42477 24.31960 10486 ft 351 kts 26°
2026-04-14 14:42 58.44682 24.33922 9702 ft 348 kts 26°
2026-04-14 14:42 58.46843 24.35846 9229 ft 336 kts 26°
2026-04-14 14:43 58.48910 24.37686 9131 ft 321 kts 27°
2026-04-14 14:43 58.50928 24.39490 9130 ft 321 kts 26°
2026-04-14 14:43 58.52954 24.41306 9133 ft 322 kts 27°
2026-04-14 14:43 58.54985 24.43127 9134 ft 322 kts 27°
2026-04-14 14:44 58.57015 24.44948 9125 ft 322 kts 27°
2026-04-14 14:44 58.59047 24.46773 9129 ft 322 kts 26°
2026-04-14 14:44 58.61074 24.48595 9130 ft 322 kts 27°
2026-04-14 14:44 58.63083 24.50404 9127 ft 322 kts 27°
2026-04-14 14:45 58.65114 24.52233 9128 ft 322 kts 27°
2026-04-14 14:45 58.67141 24.54062 9136 ft 322 kts 27°
2026-04-14 14:45 58.69172 24.55899 9123 ft 322 kts 27°
2026-04-14 14:45 58.71235 24.57577 9123 ft 323 kts 19°
2026-04-14 14:46 58.73463 24.58258 9121 ft 327 kts
2026-04-14 14:46 58.75728 24.57902 9135 ft 327 kts 355°
2026-04-14 14:46 58.77990 24.57315 9131 ft 328 kts 354°
2026-04-14 14:46 58.80249 24.56711 9129 ft 328 kts 354°
2026-04-14 14:47 58.82507 24.56117 9125 ft 327 kts 354°
2026-04-14 14:47 58.84761 24.55531 9136 ft 327 kts 354°
2026-04-14 14:47 58.87024 24.54948 9128 ft 328 kts 354°
2026-04-14 14:47 58.89280 24.54367 9137 ft 328 kts 354°
2026-04-14 14:48 58.91542 24.53784 8999 ft 328 kts 354°
2026-04-14 14:48 58.93799 24.53205 8447 ft 326 kts 354°
2026-04-14 14:48 58.96050 24.52625 7614 ft 328 kts 354°
2026-04-14 14:48 58.98322 24.52041 6731 ft 331 kts 354°
2026-04-14 14:49 59.00610 24.51451 5820 ft 333 kts 354°
2026-04-14 14:49 59.02905 24.50860 4922 ft 333 kts 354°
2026-04-14 14:49 59.05203 24.50266 4024 ft 332 kts 354°
2026-04-14 14:49 59.07466 24.49678 3410 ft 324 kts 353°
2026-04-14 14:50 59.09646 24.49109 3159 ft 305 kts 354°
2026-04-14 14:50 59.11671 24.48580 3125 ft 282 kts 354°
2026-04-14 14:50 59.13543 24.48089 3141 ft 263 kts 355°
2026-04-14 14:50 59.15304 24.47630 3010 ft 250 kts 354°
2026-04-14 14:51 59.17030 24.47184 2618 ft 249 kts 355°
2026-04-14 14:51 59.18723 24.46745 2316 ft 246 kts 355°
2026-04-14 14:51 59.20400 24.46310 2159 ft 238 kts 355°
2026-04-14 14:51 59.22024 24.45886 2145 ft 235 kts 355°
2026-04-14 14:52 59.23634 24.45459 2157 ft 233 kts 356°
2026-04-14 14:52 59.25235 24.45043 2156 ft 232 kts 355°
2026-04-14 14:52 59.26837 24.44627 2160 ft 232 kts 355°
2026-04-14 14:52 59.28438 24.44210 2160 ft 232 kts 356°
2026-04-14 14:53 59.30033 24.43792 2166 ft 232 kts 356°
2026-04-14 14:53 59.31632 24.43373 2162 ft 231 kts 355°
2026-04-14 14:53 59.33236 24.43047 2159 ft 232 kts
2026-04-14 14:53 59.34848 24.42976 2160 ft 232 kts
2026-04-14 14:54 59.36459 24.42968 2160 ft 231 kts
2026-04-14 14:54 59.38069 24.42962 2162 ft 230 kts
2026-04-14 14:54 59.39639 24.43158 2156 ft 227 kts 17°
2026-04-14 14:54 59.40930 24.44779 2162 ft 221 kts 55°
2026-04-14 14:55 59.41404 24.47578 2139 ft 219 kts 84°
2026-04-14 14:55 59.41444 24.50576 1802 ft 221 kts 89°
2026-04-14 14:55 59.41418 24.53644 1336 ft 226 kts 90°
2026-04-14 14:55 59.41393 24.56677 1169 ft 216 kts 89°
2026-04-14 14:56 59.41361 24.61879 982 ft 170 kts 88°
2026-04-14 14:56 59.41355 24.64191 916 ft 169 kts 87°
2026-04-14 14:56 59.41351 24.66464 869 ft 168 kts 88°
2026-04-14 14:57 59.41350 24.68797 832 ft 171 kts 89°
2026-04-14 14:57 59.41348 24.71134 767 ft 171 kts 88°
2026-04-14 14:57 59.41343 24.73458 576 ft 166 kts 87°
2026-04-14 14:57 59.41338 24.75626 451 ft 154 kts 88°
2026-04-14 14:58 59.41331 24.77719 419 ft 152 kts 87°
2026-04-14 14:58 59.41329 24.79781 252 ft 150 kts 86°
2026-04-14 14:58 59.41330 24.81818 172 ft 149 kts 87°
2026-04-14 14:58 59.41358 24.83812 149 ft 136 kts 81°
2026-04-14 14:59 59.41582 24.85371 167 ft 104 kts 70°
2026-04-14 14:59 59.41617 24.85584 181 ft 103 kts 69°
2026-04-14 14:59 59.41711 24.86106 175 ft 104 kts 62°
2026-04-14 14:59 59.41757 24.86424 149 ft 0 kts 120°